Погода в Пхонсаване

Лаос     19°26′57″N   103°11′19″E
темп.,
°C
ветер,
м/с
пор.,
м/с
влажн.,
%
обл.,
%
осадки,
мм/ч
давл.,
гПа
погр.,
м
10 августа, ср
ср1001:00+16ююв019910 0.0 100711
04:00+16ю11995 0.0 100612
07:00+17в009813 0.0 100739
10:00+26зсз1157100 0.0 1006932
13:00+29з224465 0.3 10032268
16:00+26ююз1263100 0.0 1002274
19:00+20в1195100 1.0 100411
22:00+19ю1198100 0.1 100613
11 августа, чт
чт1101:00+18зюз1199100 0.8 100518
04:00+18юз00100100 5.1 100429
07:00+18зюз12100100 11.1 100578
10:00+19юз12100100 1.9 100680
13:00+19ююз12100100 10.8 1005140
16:00+19юз12100100 4.6 1003160
19:00+18юз12100100 8.1 1004128
22:00+18ю11100100 2.3 100678
12 августа, пт
пт1201:00+18ююв11100100 3.2 100589
04:00+18ююв01100100 0.0 100491
07:00+18вюв13100100 2.6 1006196
10:00+19юв12100100 3.3 1007179
13:00+19ю12100100 6.6 1006155
16:00+19ю0199100 2.1 1005169
19:00+18ю11100100 2.4 100821
22:00+18ю11100100 0.0 101048
13 августа, сб
сб1301:00+18ю11100100 0.0 100966
04:00+18ююз12100100 0.1 1008121
07:00+19ю1299100 0.1 1009171
10:00+21ю138727 0.2 1010509
13:00+24зюз247646 1.7 10061039
16:00+23ююз149227 2.2 1006683
19:00+20ююз1199100 3.9 100834
22:00+19ююз11100100 1.4 101065
14 августа, вс
вс1401:00+19юз11100100 1.4 101086
04:00+18юз01100100 0.0 100851
07:00+18юз0199100 0.0 101079
10:00+24зюз2468100 0.0 10091087
13:00+26зюз246279 0.3 10061318
16:00+23зюз1490100 2.6 1006475
19:00+20ююз1198100 4.1 100815
22:00+19ю1199100 1.0 100926